Regional Weather Roundup
Issued by NWS

Home | Current Version | Previous Version | Graphics & Text | Print | Product List | Glossary On
Versions: 1 2 3 4 5 6 7 8 9 10 11 12 13 14 15 16 17 18 19 20 21 22 23 24 25 26 27 28 29 30 31 32 33 34 35 36 37 38 39 40 41 42 43 44 45 46 47 48 49 50
325
ASUS45 KBOU 261007
RWRCO

WEATHER ROUNDUP FOR COLORADO
NATIONAL WEATHER SERVICE DENVER/BOULDER CO
400 AM MDT FRI MAY 26 2017

NOTE: "FAIR" INDICATES FEW OR NO CLOUDS BELOW 12000 FEET WITH NO
SIGNIFICANT WEATHER AND/OR OBSTRUCTIONS TO VISIBILITY.

COZ001>005-013-030-031-261100-
...NORTHWEST COLORADO...

CITY           SKY/WX    TMP DP  RH WIND       PRES   REMARKS
CRAIG          FAIR      42  37  82 E6        29.93S
HAYDEN         FAIR      37  32  81 E7        29.95S
MEEKER         FAIR      39  37  92 NE6       29.92S
RABBIT EARS PA CLOUDY    32  32 100 S8G17     30.08S FOG     WCI  25
STEAMBOAT SPGS FAIR      36  34  93 N3        29.97R
WALDEN           N/A     34  32  93 S5        30.02F WCI  30
$$

COZ006>008-011-261100-
...WEST CENTRAL VALLEYS...

CITY           SKY/WX    TMP DP  RH WIND       PRES   REMARKS
GRAND JUNCTION CLOUDY    60  42  51 SE15      29.85S
MONTROSE       FAIR      51  41  68 NE5       29.95R
EAGLE          FAIR      45  41  86 E3        30.02S
RIFLE          FAIR      52  42  69 W5        29.93R
DELTA          FAIR      54  46  75 E8        29.92S
NUCLA          FAIR      52  36  54 E6        29.94S
$$

COZ017>023-064>068-261100-
...SOUTHWEST COLORADO...

CITY           SKY/WX    TMP DP  RH WIND       PRES   REMARKS
DURANGO          N/A    N/A N/A N/A MISG      29.98R
CORTEZ         FAIR      60  17  18 SW12      29.92S
PAGOSA SPRINGS NOT AVBL
TELLURIDE      FAIR      42  37  81 SE7       30.09F
WOLF CREEK PAS FAIR      32  23  69 S16G24    30.26R WCI  21
$$

COZ009-010-012-014-032>034-037-058>063-261100-
...CENTRAL COLORADO...

CITY           SKY/WX    TMP DP  RH WIND       PRES   REMARKS
ASPEN          CLOUDY    44  40  85 SE9       30.05F
BUENA VISTA    CLOUDY    44  39  83 NW6       30.06R
COPPER MTN     LGT SNOW  34  28  80 SW10G24   30.19R WCI  26
BERTHOUD PASS  FAIR      27  16  63 W10G22    30.17R WCI  17
COTTONWOOD PAS CLOUDY    43  32  65 CALM      30.12F
GUNNISON       FAIR      43  40  89 E7        30.07S
KREMMLING      FAIR      41  37  87 CALM      30.04R
LEADVILLE      LGT SNOW  34  32  92 N8        30.12S FOG     WCI  27
MONARCH PASS   FOG       32  30  93 W22       30.30S VSB 1/4 WCI  19
SALIDA         FAIR      47  38  72 CALM      30.11F
SUNLIGHT       CLOUDY    32  32 100 SW15G22   30.15R WCI  22
WILKERSON PASS CLOUDY    32  32 100 SW12G21   30.19R FOG     WCI  23
$$

COZ069>075-261100-
...SAN LUIS VALLEY/SANGRE DE CRISTO MOUNTAINS...

CITY           SKY/WX    TMP DP  RH WIND       PRES   REMARKS
ALAMOSA        FAIR      43  35  73 W12       30.04R
DEL NORTE      FAIR      41  33  75 S6        30.07R
LA VETA PASS   FAIR      39  27  60 S6        30.25R
SAGUACHE       FAIR      43  36  75 W5        30.05F
$$

COZ035-036-038>040-261100-
...NORTHERN COLORADO FRONT RANGE...

CITY           SKY/WX    TMP DP  RH WIND       PRES   REMARKS
DENVER INTL AP FAIR      46  43  89 SW7       29.96R
DMNS CITY PARK   N/A     47  46  99 SW9       29.98R
AURORA         MOCLDY    45  45 100 SW6       29.98R
FRONT RANGE AP FAIR      46  45  93 SW7       29.97S
ERIE MUNI ARPT FAIR      44  43  95 S5        29.97R
BOULDER MUN AP FAIR      46  45  93 SW5       29.97R
CENTENNIAL     CLOUDY    45  45 100 SW8       29.98S
BROOMFIELD     FAIR      43  41  93 W7        29.99R
FORT COLLINS   FAIR      46  41  82 NE7       29.97R
LONGMONT       FAIR      46  43  91 SW6       29.99R
$$

COZ041-046-047-076>085-087-088-261100-
...PIKES PEAK/PALMER DIVIDE AND SOUTHERN FOOTHILLS...

CITY           SKY/WX    TMP DP  RH WIND       PRES   REMARKS
COLO. SPRINGS  FAIR      48  43  82 NE5       29.99S
A. F. ACADEMY  FAIR      45  41  86 CALM      29.99S
SCHRIEVER AFB  FAIR      45  41  88 N8        29.99R
CHEYENNE MTN   FAIR      46  42  88 CALM      29.95R
ELLICOTT       FAIR     N/A N/A N/A E6        29.97F
FALCON         FAIR      42  40  93 N8        30.02R
FORT CARSON    FAIR      47  45  91 CALM      29.97S
LIMON          LGT RAIN  47  46  97 S8        29.97S
MONUMENT HILL  FAIR      37  37 100 S5        30.03R
CANON CITY     NOT AVBL
WALSENBURG     FAIR      45  41  87 W3        29.99R
TRINIDAD       FAIR      47  41  80 NW7       29.98R
$$

COZ042>045-048>051-090-091-261100-
...NORTHEAST COLORADO...

CITY           SKY/WX    TMP DP  RH WIND       PRES   REMARKS
GREELEY ARPT   FAIR      45  41  86 NW7       29.96R
AKRON          FAIR      49  43  80 N13       29.93R
BURLINGTON     LGT RAIN  54  50  86 NW15      29.91R
WRAY           FAIR      54  50  87 W8        29.89S
YUMA           NOT AVBL
STERLING       FAIR      46  43  87 N5        29.91R
HOLYOKE        NOT AVBL
FORT MORGAN    FAIR      46  40  82 N13       29.94R
$$

COZ086-089-092>099-261100-
...SOUTHEAST COLORADO...

CITY           SKY/WX    TMP DP  RH WIND       PRES   REMARKS
PUEBLO         FAIR      54  46  74 N9        29.94R
LA JUNTA       MOCLDY    56  48  74 N14       29.94R
LAMAR          FAIR      53  48  83 W8        29.90R
SPRINGFIELD      N/A     49  46  90 NW12      29.89R
$$




USA.gov is the U.S. government's official web portal to all federal, state and local government web resources and services.